Flag for Russia Weather for the Past 2 Weeks in Petropavlovsk-Kamchatsky, Russia

Now
-6 °F

Clear.


Feels Like: -19 °F
Forecast: -4 / 15 °F
Wind: 6 mph from Northeast

Location: Petropavlovsk-Kamchatskij

Current Time: Feb 10, 2016 at 10:37:40 AM

Latest Report: Feb 10, 2016 at 9:30 AM


Visibility: N/A

Pressure: 30.01 "Hg

Humidity: 49%

Dew point: -20 °F

Location of Petropavlovsk-KamchatskyLocation

Historic Weather in Petropavlovsk-Kamchatsky — Graph

°F

Petropavlovsk-Kamchatsky Temperature Yesterday

Maximum temperature yesterday: 23 °F (at 3:00 PM)
Minimum temperature yesterday: 0 °F (at 2:00 AM)
Average temperature yesterday: 9 °F

High & Low Weather Summary for the Past Weeks

 TemperatureHumidityPressure
High23 °F (Feb 9, 3:00 PM)86% (Jan 26, 4:00 PM)30.01 "Hg (Jan 26, 4:00 PM)
Low-9 °F (Feb 6, 9:00 AM)17% (Feb 6, 3:00 PM)29.18 "Hg (Jan 26, 9:00 AM)
Average7 °F53%29.54 "Hg
* Reported Jan 26 9:00 AM — Feb 10 9:00 AM, Petropavlovsk-Kamchatsky, Weather by CustomWeather, © 2016

Note: Actual official high and low records may vary slightly from our data, if they occured in-between our weather recording intervals... More about our weather records

Advertising

Petropavlovsk-Kamchatsky Weather History for the Previous 24 Hours

 ConditionsComfort  
Time TempWeatherWind HumidityBarometerVisibility
9:00 AM
Wed, Feb 10
-6 °FClear.8 mph49%30.01 "HgN/A
8:30 AM-6 °FClear.8 mph49%30.01 "HgN/A
8:00 AM-6 °FClear.8 mph49%30.01 "HgN/A
7:30 AM-6 °FClear.8 mph49%30.01 "HgN/A
7:00 AM-4 °FClear.10 mph45%29.98 "HgN/A
6:00 AM-4 °FClear.10 mph45%29.98 "HgN/A
5:00 AM-2 °FClear.8 mph45%29.98 "HgN/A
4:00 AM0 °FClear.10 mph45%29.95 "HgN/A
3:00 AM-2 °FClear.13 mph49%29.95 "HgN/A
2:00 AM0 °FClear.10 mph50%29.92 "HgN/A
1:30 AM-2 °FClear.10 mph54%29.92 "HgN/A
12:30 AM0 °FClear.8 mph54%29.92 "HgN/A
12:00 AM-2 °FClear.6 mph59%29.89 "HgN/A
11:30 PM
Tue, Feb 9
1 °FClear.6 mph50%29.89 "HgN/A
10:30 PM3 °FClear.6 mph50%29.89 "HgN/A
10:00 PM5 °FClear.8 mph46%29.86 "HgN/A
9:30 PM5 °FClear.8 mph46%29.86 "HgN/A
9:00 PM5 °FClear.1 mph46%29.86 "HgN/A
8:30 PM10 °FClear.6 mph40%29.86 "HgN/A
8:00 PM9 °FClear.3 mph43%29.83 "HgN/A
7:00 PM12 °FClear.8 mph37%29.83 "HgN/A
6:00 PM18 °FClear.6 mph29%29.80 "HgN/A
5:30 PM19 °FClear.8 mph29%29.77 "HgN/A
5:00 PM21 °FClear.10 mph27%29.77 "HgN/A
4:30 PM19 °FClear.6 mph35%29.74 "HgN/A
3:30 PM23 °FClear.1 mph30%29.74 "HgN/A
3:00 PM23 °FClear.8 mph30%29.74 "HgN/A
2:30 PM21 °FClear.10 mph32%29.71 "HgN/A
2:00 PM21 °FClear.8 mph32%29.71 "HgN/A
1:30 PM18 °FClear.1 mph38%29.71 "HgN/A
1:00 PM18 °FClear.No wind35%29.71 "HgN/A
12:30 PM14 °FClear.1 mph44%29.71 "HgN/A
12:00 PM10 °FClear.3 mph47%29.71 "HgN/A
11:30 AM7 °FClear.3 mph51%29.71 "HgN/A
11:00 AM7 °FClear.3 mph51%29.71 "HgN/A
10:30 AM5 °FClear.1 mph51%29.68 "HgN/A
10:00 AM5 °FClear.No wind51%29.68 "HgN/A
Weather by CustomWeather, © 2016

See weather overviewHow to use our weather pages